Temperature
19 17 17 17 17 19 20 20 19 19 20 20 19 17 16 16 16 16 16 16 16 16 16 16 17 17 17 17 17 17 17 16 16 16 16 16 16 15 15 15 14 14 14 13
17 17 18 18 18 18 19 19 19 19 20 20 18 17 16 16 16 16 15 15 15 14 14 15 16 16 16 16 16 16 16 15 15 15 15 15 15 15 14 14 14 13 13 12
17 18 19 18 19 19 18 18 19 19 19 19 18 17 16 16 16 15 15 15 14 14 14 14 14 15 15 15 15 15 15 15 14 14 14 14 14 14 13 13 12 12 12 11
17 18 19 19 19 18 18 18 18 19 18 17 18 17 16 15 15 15 15 14 14 14 13 13 13 14 14 14 14 14 14 14 14 13 13 13 13 13 13 12 12 11 11 10
17 18 18 18 19 18 18 19 19 19 18 16 17 16 15 15 15 15 15 15 14 14 13 13 13 13 13 13 13 14 13 13 13 13 13 13 13 12 12 11 10 10 9 9
18 19 19 19 20 19 19 19 17 15 15 16 16 15 15 15 16 16 15 15 14 14 13 13 13 13 13 13 13 13 13 13 13 13 13 13 12 12 11 10 10 9 8 7
18 19 19 20 20 20 20 17 16 16 15 15 16 15 15 15 16 16 16 15 14 13 13 12 12 12 12 12 12 12 12 13 12 12 12 12 12 11 11 10 9 8 7 6
17 18 19 19 19 19 17 17 16 16 16 16 17 15 15 15 16 17 16 15 14 13 12 12 12 12 12 12 12 12 12 12 12 12 12 12 11 10 9 8 8 7 6 5
16 17 19 19 20 19 17 16 17 16 16 16 15 15 15 14 14 15 15 14 13 12 12 12 11 11 11 11 11 11 11 11 11 11 11 10 9 8 7 7 6 5 5 5
16 17 19 20 20 19 18 16 14 14 15 15 16 16 15 15 14 14 14 14 13 11 11 11 11 11 11 11 11 11 10 10 10 9 8 8 7 6 6 5 5 4 4 4
17 16 17 19 19 19 17 16 15 13 14 15 15 16 15 15 14 14 14 14 12 11 11 11 10 10 11 10 10 10 9 9 8 8 7 6 6 5 5 5 4 4 4 3
15 14 15 16 18 18 18 17 14 15 15 13 14 15 16 13 13 14 14 13 12 11 11 11 10 10 10 10 10 9 8 8 7 6 6 5 5 4 4 4 4 3 3 3
14 13 14 15 16 16 17 17 16 14 13 13 14 15 14 13 13 14 13 12 10 10 10 10 10 10 10 9 9 8 7 7 6 5 5 4 4 4 4 4 3 3 3 3
13 12 13 15 15 15 16 17 16 15 14 13 14 15 14 13 12 12 12 11 9 9 9 9 9 9 9 8 7 7 6 5 5 5 4 4 4 4 4 3 3 3 3 3
11 12 13 13 14 14 15 15 15 15 14 14 15 15 14 13 12 12 11 10 9 8 8 8 9 9 8 7 7 6 5 5 5 5 4 4 4 4 4 4 4 4 3 3
10 12 12 13 14 14 14 14 14 15 15 14 15 14 13 12 12 11 10 9 8 8 7 7 8 8 7 7 6 5 5 5 5 4 4 4 4 4 4 4 4 4 4 4
9 10 11 10 12 13 12 13 14 14 15 14 14 14 11 10 10 10 10 9 8 7 7 7 8 7 7 6 5 5 5 5 4 4 4 4 4 4 4 4 4 4 4 4
8 9 8 8 11 11 11 13 13 14 14 13 13 12 11 10 10 10 10 9 8 7 7 7 7 7 6 5 5 5 5 4 4 4 4 4 4 4 4 4 4 4 4 4
7 8 7 7 9 9 11 12 12 12 12 13 12 10 9 9 8 8 8 8 7 7 7 7 6 6 5 5 4 4 4 4 4 4 4 4 5 5 5 5 4 4 4 3
6 6 7 7 9 9 10 10 11 11 11 11 10 9 8 9 8 7 7 7 7 6 6 6 5 5 4 4 4 4 4 4 4 4 4 5 5 5 5 4 4 3 2 1
6 6 7 7 7 8 9 9 10 11 10 9 9 9 8 7 7 6 6 6 6 6 5 4 4 4 4 4 5 5 5 4 5 4 5 5 5 4 4 3 2 2 1 -0
6 6 6 6 7 7 8 8 8 8 8 8 8 7 6 5 5 5 6 6 5 4 4 4 4 4 4 5 5 5 5 5 4 4 4 4 4 3 3 2 1 0 -0 -1
5 6 6 6 6 7 7 7 8 8 7 7 6 6 6 5 4 5 5 5 4 4 4 4 4 5 5 5 5 5 5 5 4 4 4 3 3 2 1 1 -0 -1 -1 -2
6 6 5 6 6 7 7 7 7 7 7 7 6 6 6 5 5 4 4 4 4 4 4 5 5 5 5 5 5 5 5 4 4 4 3 2 2 1 0 -0 -1 -2 -2 -2
6 6 6 6 7 7 7 6 6 6 6 6 5 5 6 5 5 4 4 4 4 5 5 5 5 5 5 5 5 5 4 4 4 3 2 1 1 -0 -1 -1 -2 -2 -2 -3
6 6 6 6 6 6 6 6 6 6 6 5 5 5 5 5 5 4 4 5 5 5 5 5 5 5 5 5 5 4 4 4 3 2 1 0 -0 -1 -1 -2 -2 -2 -2 -3
Wind_Speed
4 5 6 8 8 7 4 3 6 7 5 3 3 3 3 2 4 5 6 9 11 10 8 9 8 9 8 8 8 7 8 6 6 5 5 6 5 5 7 9 13 13 12 12
4 5 10 7 5 5 4 4 7 8 2 2 0 2 2 3 4 5 6 7 8 8 9 8 8 8 8 8 9 9 8 7 6 5 5 5 6 6 6 7 12 13 13 11
10 8 5 6 6 6 5 6 7 8 5 2 2 2 1 1 3 5 6 7 8 10 10 9 9 9 9 9 9 9 10 10 9 8 7 7 5 5 5 6 5 8 10 10
8 8 5 5 6 8 7 9 9 7 3 5 3 4 5 3 4 6 8 9 11 11 10 9 10 10 10 10 10 11 11 11 9 8 9 8 6 4 3 3 3 5 9 9
10 8 9 10 11 11 10 7 6 6 5 3 2 5 6 4 8 12 12 12 12 12 12 11 11 11 11 10 10 10 11 11 10 9 9 10 8 5 3 3 5 4 5 7
9 6 9 11 10 9 7 4 6 4 4 3 8 8 7 9 13 13 16 15 14 14 13 13 12 12 11 10 9 10 11 10 9 9 9 9 8 6 5 4 4 3 3 3
7 6 5 6 4 3 5 5 4 5 3 7 5 5 10 12 12 15 19 17 14 15 15 14 13 12 11 10 9 9 10 9 7 8 8 7 7 6 5 3 2 2 2 2
8 10 9 9 11 10 8 10 8 6 7 8 4 8 9 7 7 9 13 16 16 15 14 14 12 11 10 9 8 8 8 7 6 7 6 6 5 4 3 2 1 1 1 2
10 9 5 7 8 11 8 8 9 7 4 5 7 8 8 3 4 12 17 17 17 16 15 14 11 10 10 9 7 7 7 6 5 5 5 4 3 3 2 2 1 2 2 2
9 6 6 3 4 4 8 9 7 7 7 7 7 6 6 7 10 14 19 20 18 16 15 14 11 9 8 7 7 6 5 5 3 3 2 2 1 1 1 1 3 3 4 3
5 5 6 1 7 8 5 6 6 6 6 7 7 9 8 12 15 19 20 18 18 18 17 14 11 9 9 7 6 5 4 3 2 1 1 1 1 1 2 2 3 3 3 4
3 4 3 6 5 2 5 8 9 6 7 6 5 9 6 9 12 15 16 17 18 19 17 15 13 11 9 8 6 5 3 3 2 2 1 1 2 2 2 3 4 4 5 5
2 5 3 8 6 5 3 2 3 4 3 5 5 9 5 1 9 13 17 19 19 20 18 15 14 12 10 8 7 5 3 3 3 2 2 2 3 3 3 4 5 5 6 6
4 3 6 7 7 3 5 3 2 4 2 4 7 8 5 3 9 14 18 20 20 20 20 17 14 11 9 8 7 5 4 4 3 3 3 3 4 4 5 6 6 6 6 7
5 1 2 5 6 5 5 7 6 6 8 8 8 8 9 10 12 15 18 20 22 21 21 19 15 12 10 8 6 5 4 4 4 4 4 5 5 5 6 6 7 7 7 7
3 0 2 4 6 6 8 9 9 9 8 9 9 10 7 5 9 13 19 23 23 22 21 19 16 13 11 9 7 6 5 4 3 4 5 5 5 6 7 7 7 7 7 7
1 3 1 4 5 6 8 9 10 9 8 8 11 10 5 7 15 20 21 22 22 21 19 18 15 13 10 9 7 5 4 3 4 4 5 6 6 7 8 8 7 7 6 4
4 3 3 3 1 7 9 5 4 6 7 6 6 4 7 7 7 7 10 14 16 17 16 14 12 10 7 5 4 4 3 3 3 4 5 6 6 7 7 6 6 5 3 4
6 6 4 3 4 8 8 5 3 4 7 5 4 3 7 12 9 7 8 11 12 12 12 11 9 8 6 6 4 3 2 1 3 4 6 6 6 6 6 5 5 5 5 6
5 3 4 3 3 6 5 8 8 3 7 6 2 7 11 11 8 6 10 16 15 14 11 10 8 6 6 4 3 2 0 2 4 5 6 6 5 4 6 7 6 5 5 6
5 4 1 3 5 7 4 9 7 2 6 10 3 4 8 3 6 13 16 17 16 14 12 9 7 6 5 4 3 2 2 4 5 4 5 6 7 8 8 7 6 6 6 7
1 1 1 0 3 8 4 7 3 4 6 5 2 7 13 16 19 18 18 17 16 13 10 8 6 5 3 2 2 2 4 4 4 6 8 8 8 7 7 7 6 6 7 8
3 5 3 5 7 7 5 7 11 8 5 2 6 14 19 19 19 18 17 15 14 11 8 6 6 5 2 1 3 3 4 4 6 8 8 8 8 7 6 6 6 6 7 7
4 2 3 6 8 7 9 7 5 2 6 8 13 16 18 19 18 17 14 12 10 7 7 5 6 5 3 3 4 4 4 6 8 9 7 6 7 6 6 5 5 5 7 8
5 3 4 7 7 6 6 5 4 10 14 16 14 14 16 18 16 15 12 10 8 6 5 5 6 5 4 5 6 6 6 8 9 8 7 6 6 6 6 5 4 5 4 7
3 3 3 3 4 3 6 10 13 16 16 15 15 14 12 13 14 13 10 8 7 7 6 6 6 6 6 7 7 6 6 8 9 7 6 5 5 5 5 6 6 8 8 12
Wind_Direction
122 113 192 204 192 189 189 221 267 269 287 351 338 343 357 60 110 162 185 182 174 156 124 110 101 98 92 82 84 83 90 89 96 95 93 88 77 65 60 59 58 60 63 65
59 243 225 198 170 160 183 244 275 292 301 171 173 19 43 86 139 167 178 182 169 147 134 120 103 91 90 90 85 80 76 70 64 74 82 89 93 77 68 57 53 53 56 57
192 231 197 169 188 191 212 214 242 260 320 348 149 327 324 59 114 135 151 161 163 164 155 136 114 101 97 90 88 87 77 71 66 74 86 88 75 65 47 40 38 37 50 55
217 237 189 184 209 185 246 228 221 245 264 267 177 253 258 190 172 180 172 167 167 164 150 135 122 111 103 97 92 88 83 79 74 78 88 89 90 85 60 45 39 32 41 46
222 206 188 208 222 186 218 232 216 233 221 253 240 201 266 185 210 209 191 179 169 158 149 138 129 119 109 103 98 93 90 83 79 82 90 94 92 93 85 60 48 34 25 30
228 213 189 207 224 196 208 74 51 54 92 244 233 191 237 207 211 200 191 183 168 153 144 134 127 121 113 105 99 96 93 84 80 84 86 97 104 104 92 65 47 25 5 5
264 263 227 187 197 171 144 111 6 337 353 245 236 189 236 228 218 197 186 177 164 152 145 140 138 131 121 111 101 95 96 92 88 90 89 94 102 101 98 90 63 35 7 345
214 257 228 197 201 205 186 158 175 216 237 269 271 223 248 264 237 189 171 167 162 154 147 143 140 134 126 117 108 106 106 104 96 93 91 91 97 101 98 84 66 15 317 293
191 239 261 215 202 178 168 190 188 177 228 256 271 277 296 316 185 170 166 168 168 157 148 143 138 131 128 124 121 123 119 109 100 99 99 93 91 90 76 42 9 334 318 308
173 234 278 249 142 185 169 157 119 147 183 244 264 254 245 224 193 177 176 177 168 154 146 143 141 135 129 125 121 115 115 118 118 120 121 107 77 56 37 13 346 328 317 313
150 192 298 329 180 190 140 142 152 153 176 192 248 260 228 212 193 187 185 176 163 155 152 149 144 137 129 122 120 120 121 119 133 147 105 72 346 338 343 330 309 302 295 296
57 129 266 273 268 281 190 183 157 173 224 201 208 256 264 228 198 183 174 165 158 155 153 150 146 141 139 137 137 143 154 171 196 218 235 281 300 310 314 305 297 292 288 287
32 98 22 340 341 5 47 97 148 136 138 184 207 263 319 257 173 168 164 161 159 156 153 151 150 152 152 151 150 160 191 214 228 234 252 289 295 291 288 288 290 288 284 286
97 112 173 212 235 288 303 292 176 138 181 234 230 252 287 208 173 168 165 162 160 160 158 157 156 154 154 156 161 175 203 227 238 241 250 268 272 272 275 280 282 281 279 280
61 93 257 255 272 276 259 266 255 220 209 215 239 233 244 218 190 174 164 160 161 163 163 162 159 156 155 158 169 186 211 230 236 240 250 258 264 270 274 277 278 280 281 282
46 158 317 290 277 284 275 263 254 245 231 230 244 252 243 183 154 161 167 168 169 169 165 161 158 157 160 169 178 190 210 228 231 239 252 262 269 274 273 274 279 286 292 295
256 182 203 263 283 318 272 242 232 233 223 211 232 244 169 173 179 178 176 174 170 165 161 158 157 159 166 172 176 187 210 230 235 251 266 273 273 276 278 286 293 296 300 307
197 172 185 245 261 235 249 269 261 258 263 249 257 260 187 179 159 151 158 159 155 153 152 150 149 149 150 153 165 188 211 226 248 267 279 285 288 289 295 305 312 322 342 2
182 168 174 181 235 275 295 316 330 297 283 265 239 162 127 111 86 75 115 127 131 131 132 131 130 132 140 154 171 176 188 260 285 297 304 310 312 310 326 355 17 29 40 34
60 105 145 160 209 248 275 330 327 312 291 318 249 163 151 135 150 156 122 116 114 112 113 114 115 121 142 159 161 147 20 329 324 322 324 336 353 27 53 60 58 49 46 33
10 23 69 203 236 266 297 316 330 242 277 325 316 170 156 126 128 124 117 112 112 111 112 117 129 141 150 156 148 105 10 342 331 349 28 48 63 77 78 71 60 48 37 23
289 324 301 224 245 262 325 355 339 276 297 318 37 105 108 108 111 114 114 114 115 118 124 133 139 135 139 159 129 62 9 353 29 61 68 67 66 74 75 68 53 37 23 11
229 206 217 221 238 265 292 272 269 258 237 172 122 123 123 120 119 117 116 119 124 131 137 136 133 125 111 106 101 58 12 41 78 81 75 71 70 62 56 52 37 20 9 2
282 209 229 273 275 296 307 300 296 194 144 125 126 125 123 120 120 119 120 123 124 124 124 122 118 107 76 55 65 66 63 86 94 89 78 69 63 49 35 29 19 9 0 355
262 251 247 262 286 312 353 6 77 101 106 108 108 112 118 120 122 123 122 120 115 109 105 111 112 101 78 67 65 70 90 100 95 86 77 64 52 41 25 14 360 354 336 337
250 239 263 297 339 16 42 62 86 95 99 105 109 107 108 116 118 116 111 107 107 104 105 101 96 90 80 79 76 73 86 97 97 85 70 58 46 34 24 14 6 354 349 338
Height
1488 1495 1500 1499 1498 1499 1500 1503 1506 1502 1493 1495 1497 1499 1497 1495 1495 1497 1498 1498 1499 1501 1504 1507 1511 1514 1518 1520 1523 1525 1527 1529 1530 1532 1533 1533 1534 1534 1534 1535 1535 1535 1534 1533
1493 1495 1490 1490 1493 1497 1500 1503 1505 1499 1492 1494 1498 1500 1498 1496 1497 1498 1500 1501 1503 1504 1505 1507 1510 1513 1516 1519 1522 1524 1527 1528 1530 1532 1533 1533 1533 1533 1533 1533 1532 1532 1531 1530
1492 1488 1484 1489 1493 1497 1500 1503 1501 1500 1495 1494 1498 1502 1500 1498 1497 1498 1500 1501 1503 1505 1506 1508 1510 1512 1515 1518 1520 1523 1525 1528 1530 1531 1532 1532 1532 1532 1531 1530 1530 1529 1528 1527
1487 1481 1483 1487 1490 1493 1501 1493 1494 1496 1503 1508 1500 1514 1503 1498 1497 1497 1498 1500 1501 1504 1506 1508 1510 1512 1515 1517 1520 1523 1525 1527 1529 1530 1531 1531 1530 1530 1529 1529 1527 1526 1525 1523
1482 1477 1481 1485 1484 1486 1489 1484 1489 1492 1499 1506 1504 1510 1508 1499 1497 1493 1494 1496 1499 1502 1505 1508 1510 1512 1514 1517 1520 1522 1525 1527 1528 1529 1529 1529 1529 1528 1527 1526 1524 1523 1521 1519
1472 1470 1472 1474 1473 1476 1478 1484 1492 1499 1506 1513 1502 1509 1507 1495 1486 1484 1487 1492 1496 1500 1504 1507 1510 1512 1515 1518 1521 1523 1525 1526 1528 1528 1528 1527 1527 1526 1525 1523 1521 1519 1517 1516
1476 1471 1468 1468 1473 1475 1480 1495 1513 1512 1520 1513 1494 1501 1496 1478 1472 1473 1478 1487 1493 1497 1501 1505 1508 1512 1515 1519 1521 1524 1525 1526 1527 1527 1527 1526 1525 1523 1522 1520 1518 1516 1514 1513
1483 1480 1466 1464 1468 1475 1480 1489 1510 1516 1516 1505 1492 1498 1484 1472 1470 1472 1478 1484 1490 1495 1499 1504 1509 1512 1516 1519 1522 1524 1526 1527 1527 1526 1525 1524 1522 1520 1518 1517 1515 1513 1512 1510
1480 1476 1459 1457 1457 1464 1478 1485 1481 1497 1500 1506 1500 1489 1477 1469 1468 1469 1475 1482 1487 1492 1498 1504 1509 1513 1516 1519 1523 1525 1526 1526 1526 1525 1523 1521 1519 1518 1516 1514 1513 1512 1510 1509
1467 1472 1460 1455 1456 1458 1463 1471 1489 1497 1506 1509 1497 1489 1482 1471 1469 1469 1472 1477 1484 1491 1497 1503 1508 1512 1516 1519 1521 1524 1525 1525 1524 1523 1521 1519 1518 1516 1514 1512 1511 1510 1509 1507
1462 1471 1465 1459 1459 1462 1466 1472 1477 1489 1492 1499 1500 1489 1464 1460 1460 1463 1467 1474 1482 1488 1495 1501 1507 1511 1514 1518 1521 1522 1523 1523 1522 1521 1519 1518 1516 1515 1513 1511 1510 1508 1507 1506
1465 1472 1474 1465 1456 1454 1456 1461 1473 1483 1485 1488 1490 1482 1453 1454 1454 1459 1466 1473 1479 1485 1492 1498 1504 1509 1513 1516 1519 1521 1521 1521 1520 1519 1518 1516 1514 1513 1511 1509 1508 1507 1506 1504
1467 1475 1482 1476 1469 1462 1460 1460 1464 1472 1478 1486 1488 1476 1453 1451 1452 1457 1463 1470 1476 1482 1488 1495 1501 1506 1510 1513 1516 1518 1520 1519 1519 1518 1516 1515 1513 1512 1510 1508 1507 1505 1503 1501
1466 1475 1481 1481 1476 1468 1466 1462 1463 1469 1479 1480 1474 1465 1456 1454 1454 1456 1460 1466 1472 1478 1484 1491 1498 1504 1508 1512 1514 1515 1517 1517 1517 1516 1515 1513 1512 1510 1508 1507 1505 1503 1501 1499
1469 1476 1473 1472 1468 1467 1466 1464 1463 1465 1466 1470 1463 1459 1452 1450 1450 1453 1458 1464 1470 1476 1481 1487 1494 1500 1506 1509 1512 1513 1515 1515 1515 1514 1513 1512 1510 1508 1507 1505 1503 1501 1499 1496
1474 1476 1474 1473 1467 1466 1465 1461 1461 1459 1457 1457 1454 1452 1445 1446 1449 1453 1457 1461 1466 1472 1478 1485 1491 1498 1503 1507 1509 1511 1513 1513 1513 1513 1512 1510 1508 1507 1505 1503 1501 1498 1496 1493
1477 1478 1479 1481 1471 1468 1469 1458 1455 1452 1448 1449 1451 1446 1444 1446 1446 1447 1452 1457 1462 1469 1475 1482 1489 1496 1500 1504 1507 1510 1511 1512 1512 1511 1510 1508 1507 1505 1503 1501 1498 1495 1492 1489
1478 1479 1483 1483 1476 1479 1463 1451 1449 1448 1445 1444 1443 1441 1442 1443 1445 1449 1453 1458 1464 1470 1477 1483 1489 1495 1500 1504 1507 1509 1510 1511 1510 1509 1508 1507 1504 1502 1500 1497 1494 1491 1488 1484
1474 1478 1483 1485 1481 1472 1460 1453 1452 1450 1447 1442 1441 1441 1444 1445 1449 1456 1459 1463 1468 1474 1480 1486 1492 1496 1500 1504 1507 1509 1510 1509 1509 1508 1506 1504 1502 1499 1497 1494 1491 1487 1484 1480
1475 1476 1481 1483 1480 1475 1464 1457 1453 1452 1451 1443 1442 1442 1444 1445 1453 1459 1461 1466 1472 1478 1484 1489 1494 1498 1501 1505 1507 1509 1509 1508 1507 1505 1504 1502 1499 1497 1494 1491 1488 1485 1481 1478
1481 1482 1482 1482 1481 1472 1464 1459 1453 1459 1456 1449 1445 1444 1445 1446 1450 1457 1462 1469 1475 1482 1487 1492 1497 1500 1503 1506 1508 1508 1508 1507 1505 1503 1502 1500 1497 1495 1492 1489 1486 1483 1479 1476
1483 1484 1483 1483 1482 1476 1462 1460 1461 1459 1455 1451 1448 1447 1448 1450 1455 1460 1465 1472 1478 1484 1489 1494 1499 1502 1505 1507 1508 1508 1507 1505 1504 1502 1501 1499 1496 1494 1491 1488 1485 1482 1478 1474
1483 1482 1480 1479 1476 1465 1461 1460 1456 1453 1452 1450 1450 1450 1451 1455 1460 1465 1470 1476 1481 1487 1492 1497 1501 1504 1506 1508 1508 1508 1507 1505 1503 1502 1500 1498 1496 1493 1490 1487 1484 1481 1477 1473
1478 1476 1477 1474 1466 1462 1459 1454 1450 1448 1448 1450 1452 1454 1456 1459 1464 1469 1474 1480 1486 1491 1496 1500 1503 1506 1507 1508 1508 1508 1507 1505 1504 1502 1500 1498 1495 1493 1490 1487 1484 1481 1477 1473
1478 1476 1474 1470 1465 1461 1457 1453 1450 1449 1451 1454 1458 1461 1462 1465 1470 1474 1480 1486 1491 1496 1500 1503 1505 1507 1508 1509 1509 1509 1508 1506 1504 1502 1500 1498 1495 1493 1491 1488 1485 1482 1479 1475
1475 1474 1472 1468 1466 1463 1461 1458 1456 1456 1458 1461 1464 1468 1471 1473 1476 1481 1486 1491 1496 1499 1503 1505 1507 1509 1510 1510 1510 1510 1509 1508 1505 1503 1500 1498 1496 1494 1492 1490 1488 1485 1482 1478